Regional Weather Roundup
Issued by NWS Jackson, KY

Home | Current Version | Previous Version | Text Only | Print | Product List | Glossary On
Versions: 1 2 3 4 5 6 7 8 9 10 11 12 13 14 15 16 17 18 19 20 21 22 23 24 25 26 27
000
ASUS43 KJKL 300410
RWRJKL

EAST KENTUCKY HOURLY WEATHER ROUNDUP
NATIONAL WEATHER SERVICE JACKSON KY
1200 AM EDT FRI SEP 30 2016

NOTE: "FAIR" INDICATES FEW OR NO CLOUDS BELOW 12,000 FEET WITH
NO SIGNIFICANT WEATHER AND/OR OBSTRUCTIONS TO VISIBILITY.

* THESE REPORTS ARE NOT UNDER NWS QUALITY CONTROL AND MAY NOT
  REPORT WEATHER SUCH AS PRECIPITATION AND FOG.

KYZ079-080-083-085-087-088-110-112-115-119-120-300500
...EASTERN KENTUCKY...

CITY           SKY/WX    TMP DP  RH WIND       PRES   REMARKS
JACKSON        CLOUDY    54  53  97 CALM      30.07F FOG
LONDON         CLEAR     52  49  89 CALM      30.09F
SOMERSET*      CLOUDY    52  52 100 CALM      30.10F
MONTICELLO*    MOCLDY    51  50  96 NE7       30.12F FOG
WILLIAMSBURG*  CLEAR     48  48 100 CALM      30.09F
MIDDLESBORO*   CLOUDY    52  51  97 CALM      30.09F
HARLAN APT*    CLOUDY    52  52 100 CALM      30.09S
PIKE CO APT*   CLOUDY    54  54 100 CALM      30.08F FOG
BIG SANDY APT* CLOUDY    55  55 100 CALM      30.08S FOG
MOREHEAD APT*  CLOUDY    57  55  94 CALM      30.10S FOG
ASHLAND*       CLOUDY    61  59  94 CALM      30.06F
$$

KYZ035-036-041-042-044-050-067-078-099-300500
...CENTRAL KENTUCKY...

CITY           SKY/WX    TMP DP  RH WIND       PRES   REMARKS
MT STERLING*   CLOUDY   N/A N/A N/A CALM      30.09F
FLEMING/MASON* CLOUDY    56  55  98 CALM      30.08S
DANVILLE*      CLOUDY    52  52 100 CALM      30.09F
LEXINGTON      LGT RAIN  55  52  89 W5        30.09S
FRANKFORT      HVY RAIN  56  53  90 CALM      30.08R FOG
LOUISVILLE     CLOUDY    58  54  86 CALM      30.08F
LEBANON*         N/A     55  54  94 MISG      30.09F
GLASGOW*       FOG      N/A N/A N/A CALM      30.10F VSB 1/4
BOWLING GREEN  CLEAR     53  51  93 CALM      30.10F FOG
$$

KYZ091>093-OHZ055-061-077-WVZ005-015-034-035-042-300500
...SOUTHERN OHIO/WEST VIRGINIA...

CITY           SKY/WX    TMP DP  RH WIND       PRES   REMARKS
COVINGTON      LGT RAIN  59  57  93 NE5       30.07S
COLUMBUS       CLOUDY    61  60  97 CALM      30.05F
DAYTON         CLOUDY    58  56  93 CALM      30.10R
WILMINGTON     LGT RAIN  57  57 100 CALM      30.09R
HUNTINGTON     CLOUDY    58  56  93 SW3       30.07F
CHARLESTON     CLOUDY    59  58  96 CALM      30.06F
PINEVILLE*     CLOUDY    57  55  90 MISG      30.13S
BECKLEY        CLOUDY    57  56  96 W5        30.07F FOG
BLUEFIELD      FOG       55  55 100 W5        30.09S VSB 1/4
LOGAN CO APT*  CLOUDY    55  55 100 CALM      30.08S
$$

VAZ002-007-008-TNZ017-027-036-066-071-300500
...SOUTHWEST VIRGINIA/EAST TENNESSEE...

CITY           SKY/WX    TMP DP  RH WIND       PRES   REMARKS
WISE*          CLOUDY    54  52  94 CALM      30.10S
JONESVILLE*    CLOUDY    54  54 100 CALM      30.10S
ABINGDON*      CLOUDY    58  57  97 CALM      30.08F
BRISTOL        CLOUDY    59  57  93 CALM      30.07F
MORRISTOWN*    CLOUDY    59  50  72 CALM      30.06F
SEVIERVILLE*   CLOUDY    61  48  63 W6        30.07F
KNOXVILLE      PTCLDY    58  47  66 N7        30.07F
OAK RIDGE      CLEAR     54  47  77 CALM      30.10S
CROSSVILLE     CLEAR     47  45  93 CALM      30.11F
NASHVILLE      PTCLDY    54  51  90 CALM      30.12S
$$

...KEY TO REMARKS...
VSB - VISIBILITY IN MILES
WCI - WIND CHILL INDEX
HX  - HEAT INDEX

$$




USA.gov is the U.S. government's official web portal to all federal, state and local government web resources and services.